EFIV Weather Reports


Display with metric or nautical units.
time (UTC)temp
F
wind
direction
speed
MPH
gust
MPH
rain 1hr
in
rain 24hr
in
rain mn
in
humidity
%
barometer
mb
20260506032727 31 51 1.0 2.0 0.00 0.00 0.00 86 1003.8
20260506030727 29 32 4.0 6.0 0.00 0.00 0.00 88 1003.6
20260506024727 30 45 4.0 6.0 0.00 0.00 0.00 87 1003.4
20260506022727 30 38 3.0 4.0 0.00 0.00 0.00 84 1003.2
20260506020726 31 20 3.0 3.0 0.00 0.00 0.00 82 1003.1
20260506014726 31 22 3.0 4.0 0.00 0.00 0.00 82 1003.0
20260506012726 31 22 4.0 5.0 0.00 0.00 0.00 84 1002.8
20260506010727 31 27 3.0 4.0 0.00 0.00 0.00 81 1002.6
20260506004725 31 19 4.0 6.0 0.00 0.00 0.00 82 1002.5
20260506002726 32 23 4.0 6.0 0.00 0.00 0.00 79 1002.3
20260506000726 32 16 4.0 5.0 0.00 0.00 0.00 77 1002.2
20260505234726 32 16 5.0 6.0 0.00 0.00 0.00 78 1002.1
20260505232726 32 18 6.0 7.0 0.00 0.00 0.00 78 1001.9
20260505230726 31 34 4.0 5.0 0.00 0.00 0.00 81 1001.8
20260505224726 32 38 4.0 4.0 0.00 0.00 0.00 80 1001.6
20260505222726 32 20 4.0 6.0 0.00 0.00 0.00 79 1001.5
20260505220726 32 47 6.0 8.0 0.00 0.00 0.00 78 1001.4
20260505214726 34 36 8.0 10.0 0.00 0.00 0.00 73 1001.1
20260505212726 34 39 9.0 11.0 0.00 0.00 0.00 74 1000.9
20260505210725 35 31 8.0 13.0 0.00 0.00 0.00 73 1000.7
20260505204726 35 21 7.0 11.0 0.00 0.00 0.00 74 1000.6
20260505202726 35 33 6.0 9.0 0.00 0.00 0.00 76 1000.4
20260505200725 35 29 7.0 9.0 0.00 0.00 0.00 77 1000.2
20260505194724 35 23 8.0 13.0 0.00 0.00 0.00 80 1000.1
20260505192725 35 16 10.0 14.0 0.00 0.00 0.00 81 1000.0
20260505190725 35 16 11.0 18.0 0.00 0.00 0.00 83 999.8
20260505184725 36 19 11.0 16.0 0.00 0.00 0.00 75 999.6
20260505182724 36 21 12.0 16.0 0.00 0.00 0.00 76 999.3
20260505180724 37 24 12.0 17.0 0.00 0.00 0.00 74 999.0
20260505174724 37 20 14.0 19.0 0.00 0.00 0.00 75 998.7
20260505172724 37 16 11.0 17.0 0.00 0.00 0.00 75 998.5
20260505170724 38 30 11.0 17.0 0.00 0.00 0.00 74 998.3
20260505164724 37 40 12.0 18.0 0.00 0.00 0.00 75 998.2
20260505162724 37 33 13.0 20.0 0.00 0.00 0.00 76 998.0
20260505160724 38 53 14.0 18.0 0.00 0.00 0.00 81 997.9
20260505152724 38 46 12.0 17.0 0.00 0.00 0.00 83 997.4
20260505150724 38 53 11.0 14.0 0.00 0.00 0.00 89 997.3
20260505124723 40 41 15.0 20.0 0.00 0.00 0.00 67 995.6
20260505122723 40 32 14.0 19.0 0.00 0.00 0.00 68 995.5
20260505120723 41 40 16.0 23.0 0.00 0.00 0.00 62 995.1
20260505114723 42 45 15.0 22.0 0.00 0.00 0.00 58 994.9
20260505112723 41 46 14.0 20.0 0.00 0.00 0.00 57 994.7
20260505110723 42 40 18.0 23.0 0.00 0.00 0.00 53 994.3
20260505100723 42 13 16.0 21.0 0.00 0.00 0.00 59 993.9
20260505094722 42 14 13.0 20.0 0.00 0.00 0.00 56 993.9
20260505092722 41 28 12.0 17.0 0.00 0.00 0.00 58 993.9
20260505090723 40 23 13.0 20.0 0.00 0.00 0.00 58 994.0
20260505084724 40 22 13.0 19.0 0.00 0.00 0.00 58 994.0
20260505082723 39 11 14.0 20.0 0.00 0.00 0.00 59 993.9
20260505080723 40 35 14.0 19.0 0.00 0.00 0.00 59 993.9
20260505074722 38 13 9.0 13.0 0.00 0.00 0.00 61 993.8
20260505072722 38 17 14.0 20.0 0.00 0.00 0.00 66 993.9
20260505070722 37 20 10.0 17.0 0.00 0.00 0.00 68 993.8
20260505064722 37 2 10.0 14.0 0.00 0.00 0.00 76 993.9
20260505062722 37 10 9.0 12.0 0.00 0.00 0.00 78 993.8
20260505060722 37 19 7.0 9.0 0.00 0.00 0.00 79 993.8
20260505054722 37 1 7.0 12.0 0.00 0.00 0.00 84 993.8
20260505052722 36 354 7.0 10.0 0.00 0.00 0.00 89 994.0
20260505050721 35 20 5.0 7.0 0.00 0.00 0.00 97 994.3
20260505040721 33 322 2.0 4.0 0.00 0.00 0.00 98 994.7
20260505034722 32 248 3.0 4.0 0.00 0.00 0.00 98 994.8